Retour au catalogue

IABS R/B

ActifMEO
NORAD 21877·ROCKET BODY·🇺🇸 United States

Lancé Feb 11, 1992 depuis Cape Canaveral Space Force Station

Loading…

Prochains Passages (prochaines 24 heures)

TLE

FraisSource: Space-Track

Époque: Sep 14, 2026, 11:17 UTC

1 21877U 92006C   26257.47073647 -.00000117  00000-0  00000-0 0  9992
2 21877   7.3544 320.9146 0659846 106.3234 260.9644  1.10786938 28860

Suivez IABS R/B en temps réel avec AllMySat

Download on the App Store